Regional Weather Roundup
Issued by NWS Green Bay, WI

Home | Current Version | Previous Version | Graphics & Text | Print | Product List | Glossary Off
Versions: 1 2 3 4 5 6 7 8 9 10 11 12 13 14 15 16 17 18 19 20 21 22 23 24 25 26 27 28 29 30 31 32 33 34 35 36 37 38 39 40 41 42 43 44 45 46 47 48 49 50

000
ASUS43 KGRB 240900
RWRGRB

NORTH-CENTRAL AND NORTHEAST WISCONSIN REGIONAL WEATHER ROUNDUP
NATIONAL WEATHER SERVICE GREEN BAY WI
400 AM CDT WED MAY 24 2017

WIZ005-009-010>012-018-019-241000-
NORTH CENTRAL WISCONSIN

CITY           SKY/WX    TMP DP  RH WIND       PRES   REMARKS
IRONWOOD       CLOUDY    42  41  96 CALM      29.81F
MANITOWISH WTR NOT AVBL
ARBOR VITAE    NOT AVBL
EAGLE RIVER    NOT AVBL
LAND O LAKES   NOT AVBL
RHINELANDER    LGT RAIN  47  44  90 NE5       29.75F
PHILLIPS       NOT AVBL
ANTIGO         NOT AVBL
TOMAHAWK       NOT AVBL
MERRILL        NOT AVBL
$$

WIZ013-073-241000-
NORTHEAST WISCONSIN

CITY           SKY/WX    TMP DP  RH WIND       PRES   REMARKS
IRON MOUNTAIN  CLOUDY    47  43  86 N6        29.73F
MARINETTE      LGT RAIN  47  46  97 NE7       29.72F FOG
$$

WIZ017-030-035>037-045-241000-
CENTRAL WISCONSIN

CITY           SKY/WX    TMP DP  RH WIND       PRES   REMARKS
MEDFORD        NOT AVBL
WAUSAU         LGT RAIN  48  46  93 N3        29.71F
MOSINEE        NOT AVBL
MARSHFIELD     LGT RAIN  49  45  86 NE8       29.71F
WISC RAPIDS    LGT RAIN  49  47  93 NE9       29.72F FOG
STEVENS POINT  NOT AVBL
WAUPACA        NOT AVBL
SHAWANO        NOT AVBL
CLINTONVILLE   NOT AVBL
WAUTOMA        LGT RAIN  49  48  97 N9        29.70S FOG
$$

WIZ038-039-048-051-241000-
FOX VALLEY

CITY           SKY/WX    TMP DP  RH WIND       PRES   REMARKS
NWS GREEN BAY  CLOUDY    49  49 100 NE14      29.69F
APPLETON       NOT AVBL
OSHKOSH        CLOUDY    50  48  93 NE10      29.67F FOG
FOND DU LAC    CLOUDY    51  48  89 NE5       29.67F FOG
$$

WIZ022-050-052-241000-
EAST CENTRAL WISCONSIN

CITY           SKY/WX    TMP DP  RH WIND       PRES   REMARKS
EPHRAIM        NOT AVBL
WASHINGTON ISL NOT AVBL
STURGEON BAY   LGT RAIN  48  46  93 NE10      29.70F
MANITOWOC      NOT AVBL
SHEBOYGAN      CLOUDY    48  48 100 NE8       29.67S FOG
$$

LMZ563-521-522-541>543-241000-
LAKESHORE

STATION/POSITION TIME  TEMP    WIND        PRES    VSBY  WAVE
                       AIR SEA DIR/SP/G                  HT/PER
                 (UTC) (F)     (DEG/KT/KT) (MB)    (MI)  (FT/S)
SHEBOYGAN LKSHOR 0800   45      10/ 14/ 15 1005.2F
KEWAUNEE LKSHORE 0830   46      20/ 11/ 17 1005.1F
NORTHPORT PIER   0840   46      10/  9/ 11 1006.4F
N MID LAKE BUOY  0750   42 39   30/ 14/ 14 1007.1F         1/ 3
CHAMBERS ISLAND  0840   47      10/ 10/ 12 1006.1S
MENOMINEE LKSHOR 0830          360/  8/ 10 1005.5S
$$




USA.gov is the U.S. government's official web portal to all federal, state and local government web resources and services.